Regional Weather Roundup
Issued by NWS

Home | Current Version | Previous Version | Graphics & Text | Print | Product List | Glossary On
Versions: 1 2 3 4 5 6 7 8 9 10 11 12 13 14 15 16 17 18 19 20 21 22 23 24 25 26 27 28 29 30 31 32 33 34 35 36 37 38 39 40 41 42 43 44 45 46 47 48 49 50
000
ASUS45 KCYS 022010
RWRWY

WYOMING REGIONAL WEATHER ROUNDUP
NATIONAL WEATHER SERVICE CHEYENNE WY
200 PM MDT SAT MAY 02 2015

NOTE:  "FAIR" INDICATES FEW OR NO CLOUDS BELOW 12,000 FEET
WITH NO SIGNIFICANT WEATHER AND/OR OBSTRUCTIONS TO VISIBILITY.

WYZ001-022100-
YELLOWSTONE NATIONAL PARK

CITY           SKY/WX    TMP DP  RH WIND       PRES   REMARKS
LK YELLOWSTONE   N/A     60  13  15 MISG      30.01F
W YELLOWSTONE  NOT AVBL

$$
WYZ002>013-054>058-071-098>099-022100-
NORTHERN WYOMING

CITY           SKY/WX    TMP DP  RH WIND       PRES   REMARKS
JACKSON        PTSUNNY   68  25  19 SW9       29.95F
CODY           FAIR      72  18  13 W17G25    29.82F
GREYBULL       FAIR      74  18  12 VRB7      29.79F
WORLAND        FAIR      77  19  11 N7        29.80F
SHERIDAN       FAIR      70  28  21 VRB3      29.80F
BUFFALO        FAIR      72  27  18 VRB6G17   29.85F
GILLETTE       FAIR      74  24  15 NE7       29.82F
HULETT         FAIR      73  27  17 NW9       29.81F
NEWCASTLE      FAIR      73  23  15 NW10      29.81F

$$
WYZ014>020-022>026-101>103-022100-
CENTRAL WYOMING

CITY           SKY/WX    TMP DP  RH WIND       PRES   REMARKS
BIG PINEY      PTSUNNY   65  22  19 W23G29    30.00F
PINEDALE       FAIR      64  23  20 W12G30    30.00F
DUBOIS         MOCLDY    64  14  14 W30       29.95F
LANDER         FAIR      74  27  17 NW7       29.86F
RIVERTON       FAIR      74  20  13 W12G21    29.87F
CASPER         FAIR      75  26  16 NW20G31   29.86F
DOUGLAS        FAIR      75  30  19 NW23      29.85F

$$
WYZ021-027>030-104>119-022100-
SOUTHERN WYOMING

CITY           SKY/WX    TMP DP  RH WIND       PRES   REMARKS
EVANSTON       FAIR      69  23  17 W24G36    30.03F
KEMMERER       MOCLDY    59  28  31 W13       30.05F
FORT BRIDGER   PTCLDY    63  34  34 N21G35    30.06R
ROCK SPRINGS   CLOUDY    63  31  30 NW13G26   30.00F
DIXON          RAIN      56  40  55 NW9G16    30.04F
RAWLINS        FAIR      70  23  17 W25G32    29.98F
SARATOGA       FAIR      63  30  29 SW21G26   30.03S
LARAMIE        FAIR      65  26  23 W17       30.00F
CHEYENNE       FAIR      70  30  22 NW14G23   29.96F
TORRINGTON     FAIR      80  30  16 SW21G32   29.82F
PINE BLUFFS    FAIR      73  36  25 W14       29.91F

$$



USA.gov is the U.S. government's official web portal to all federal, state and local government web resources and services.